Location: Peterborough
(44.3091°N, 78.3197°W)
Time: 02:54:14
(UTC-04:00)

Vanguard 1 - Pass Details

Date: 21 April 2024
Orbit: 649 x 3825 km, 34.2° (Epoch: 19 September)

Event Time Altitude Azimuth Distance (km) Brightness Sun altitude
Rises 08:06:14 0° 262° (W) 7,586 14.0 18.1°
Reaches altitude 10° 08:12:01 10° 259° (W) 6,217 13.6 19.2°
Maximum altitude 08:28:55 53° 190° (S) 2,528 12.4 22.2°
Drops below altitude 10° 08:38:13 10° 116° (ESE) 3,577 14.4 23.8°
Sets 08:40:38 0° 111° (ESE) 4,258 14.6 24.3°
